• In Hungary
  • List of Countries
  • For 7 days
  • Water Temperature
  • Satellite Maps
  • Weather Map
  • News
  • Weather Widgets
  • user-avatar
    Login

    Hourly Weather Volohovschina

    Today, 15 August, Wednesday

    Time Temperature Precipitation Wind Pressure Humidity
    00:00 +14°C° 0 mm 2 mps 740 mmHg 77%
    01:00 +15°C° 0 mm 2 mps 740 mmHg 80%
    02:00 +15°C° 0 mm 2 mps 740 mmHg 81%
    03:00 +15°C° 1.2 mm 2 mps 739 mmHg 86%
    04:00 +15°C° 1.2 mm 2 mps 739 mmHg 91%
    05:00 +15°C° 1.2 mm 2 mps 739 mmHg 96%
    06:00 +16°C° 1.4 mm 2 mps 738 mmHg 96%
    07:00 +17°C° 1.4 mm 2 mps 738 mmHg 97%
    08:00 +17°C° 0 mm 2 mps 737 mmHg 96%
    09:00 +18°C° 0.3 mm 2 mps 737 mmHg 95%
    10:00 +19°C° 0.3 mm 2 mps 737 mmHg 94%
    11:00 +20°C° 0.3 mm 2 mps 737 mmHg 93%
    12:00 +20°C° 0.2 mm 2 mps 737 mmHg 92%
    13:00 +20°C° 0.2 mm 2 mps 737 mmHg 91%
    14:00 +20°C° 0 mm 3 mps 737 mmHg 89%
    15:00 +20°C° 0.5 mm 3 mps 737 mmHg 89%
    16:00 +20°C° 0.5 mm 3 mps 738 mmHg 89%
    17:00 +20°C° 0.5 mm 3 mps 738 mmHg 89%
    18:00 +19°C° 0.3 mm 2 mps 738 mmHg 92%
    19:00 +18°C° 0.3 mm 2 mps 738 mmHg 95%
    20:00 +17°C° 0.3 mm 2 mps 739 mmHg 98%
    21:00 +16°C° 0.1 mm 1 mps 739 mmHg 98%
    22:00 +16°C° 0.1 mm 1 mps 739 mmHg 98%
    23:00 +15°C° 0.1 mm 1 mps 740 mmHg 98%

    Tomorrow, 16 August, Thursday

    Time Temperature Precipitation Wind Pressure Humidity
    00:00 +15°C° 0 mm 1 mps 740 mmHg 98%
    01:00 +15°C° 0 mm 1 mps 741 mmHg 99%
    02:00 +15°C° 0 mm 1 mps 741 mmHg 99%
    03:00 +15°C° 0 mm 1 mps 741 mmHg 98%
    04:00 +15°C° 0 mm 1 mps 742 mmHg 98%
    05:00 +15°C° 0 mm 1 mps 742 mmHg 98%
    06:00 +15°C° 0 mm 1 mps 742 mmHg 97%
    07:00 +16°C° 0 mm 1 mps 743 mmHg 96%
    08:00 +16°C° 0 mm 2 mps 743 mmHg 94%
    09:00 +17°C° 0 mm 2 mps 743 mmHg 90%
    10:00 +19°C° 0 mm 1 mps 744 mmHg 85%
    11:00 +19°C° 0 mm 1 mps 744 mmHg 81%
    12:00 +21°C° 0 mm 1 mps 744 mmHg 73%
    13:00 +22°C° 0 mm 1 mps 745 mmHg 66%
    14:00 +23°C° 0 mm 2 mps 745 mmHg 58%
    15:00 +23°C° 0 mm 2 mps 745 mmHg 59%
    16:00 +23°C° 0 mm 2 mps 745 mmHg 59%
    17:00 +23°C° 0 mm 2 mps 745 mmHg 59%
    18:00 +21°C° 0 mm 1 mps 746 mmHg 66%
    19:00 +19°C° 0 mm 1 mps 746 mmHg 73%
    20:00 +16°C° 0 mm 1 mps 746 mmHg 80%
    21:00 +15°C° 0 mm 1 mps 746 mmHg 82%
    22:00 +14°C° 0 mm 1 mps 747 mmHg 83%
    23:00 +14°C° 0 mm 1 mps 747 mmHg 85%

    Day after tomorrow, 17 August, Friday

    Time Temperature Precipitation Wind Pressure Humidity
    00:00 +13°C° 0 mm 1 mps 747 mmHg 87%
    01:00 +13°C° 0 mm 1 mps 748 mmHg 89%
    02:00 +12°C° 0 mm 1 mps 748 mmHg 91%
    03:00 +12°C° 0 mm 1 mps 748 mmHg 91%
    04:00 +12°C° 0 mm 1 mps 748 mmHg 92%
    05:00 +12°C° 0 mm 1 mps 748 mmHg 92%
    06:00 +14°C° 0 mm 1 mps 749 mmHg 83%
    07:00 +18°C° 0 mm 1 mps 749 mmHg 75%
    08:00 +20°C° 0 mm 1 mps 749 mmHg 66%
    09:00 +20°C° 0 mm 2 mps 749 mmHg 60%
    10:00 +21°C° 0 mm 2 mps 749 mmHg 53%
    11:00 +24°C° 0 mm 2 mps 749 mmHg 47%
    12:00 +24°C° 0 mm 2 mps 749 mmHg 46%
    13:00 +25°C° 0 mm 2 mps 749 mmHg 44%
    14:00 +25°C° 0 mm 2 mps 748 mmHg 43%
    15:00 +25°C° 0 mm 2 mps 748 mmHg 47%
    16:00 +24°C° 0 mm 2 mps 748 mmHg 51%
    17:00 +24°C° 0 mm 2 mps 748 mmHg 55%
    18:00 +21°C° 0 mm 2 mps 748 mmHg 62%
    19:00 +18°C° 0 mm 2 mps 748 mmHg 69%
    20:00 +16°C° 0 mm 2 mps 748 mmHg 76%
    21:00 +15°C° 0 mm 2 mps 748 mmHg 78%
    22:00 +15°C° 0 mm 2 mps 748 mmHg 80%
    23:00 +14°C° 0 mm 2 mps 748 mmHg 82%

    18 August, Saturday

    Time Temperature Precipitation Wind Pressure Humidity
    00:00 +13°C° 0 mm 2 mps 748 mmHg 83%
    01:00 +13°C° 0 mm 2 mps 748 mmHg 84%
    02:00 +13°C° 0 mm 2 mps 748 mmHg 85%
    03:00 +12°C° 0 mm 2 mps 748 mmHg 85%
    04:00 +12°C° 0 mm 2 mps 748 mmHg 86%
    05:00 +12°C° 0 mm 2 mps 748 mmHg 86%
    06:00 +14°C° 0 mm 2 mps 748 mmHg 79%
    07:00 +16°C° 0 mm 2 mps 749 mmHg 73%
    08:00 +19°C° 0 mm 2 mps 749 mmHg 66%
    09:00 +20°C° 0 mm 2 mps 749 mmHg 60%
    10:00 +23°C° 0 mm 2 mps 748 mmHg 54%
    11:00 +25°C° 0 mm 3 mps 748 mmHg 48%
    12:00 +25°C° 0 mm 3 mps 748 mmHg 46%
    13:00 +26°C° 0 mm 3 mps 748 mmHg 45%
    14:00 +26°C° 0 mm 3 mps 747 mmHg 44%
    15:00 +26°C° 0 mm 3 mps 747 mmHg 48%
    16:00 +25°C° 0 mm 2 mps 747 mmHg 53%
    17:00 +25°C° 0 mm 2 mps 747 mmHg 57%
    18:00 +23°C° 0 mm 2 mps 747 mmHg 64%
    19:00 +20°C° 0 mm 2 mps 747 mmHg 72%
    20:00 +18°C° 0 mm 2 mps 747 mmHg 79%
    21:00 +17°C° 0 mm 2 mps 746 mmHg 81%
    22:00 +17°C° 0 mm 2 mps 746 mmHg 82%
    23:00 +16°C° 0 mm 2 mps 746 mmHg 84%

    19 August, Sunday

    Time Temperature Precipitation Wind Pressure Humidity
    00:00 +16°C° 0 mm 2 mps 746 mmHg 85%
    01:00 +15°C° 0 mm 2 mps 746 mmHg 86%
    02:00 +15°C° 0 mm 2 mps 746 mmHg 87%
    03:00 +15°C° 0 mm 2 mps 746 mmHg 88%
    04:00 +14°C° 0 mm 2 mps 745 mmHg 89%
    05:00 +13°C° 0 mm 3 mps 745 mmHg 90%
    06:00 +16°C° 0 mm 3 mps 745 mmHg 84%
    07:00 +18°C° 0 mm 3 mps 745 mmHg 79%
    08:00 +20°C° 0 mm 3 mps 745 mmHg 74%
    09:00 +21°C° 0 mm 3 mps 744 mmHg 70%
    10:00 +23°C° 0 mm 4 mps 744 mmHg 67%
    11:00 +25°C° 0 mm 4 mps 744 mmHg 64%
    12:00 +25°C° 0.6 mm 4 mps 743 mmHg 69%
    13:00 +25°C° 0.6 mm 4 mps 743 mmHg 75%
    14:00 +23°C° 0.6 mm 4 mps 742 mmHg 80%
    15:00 +24°C° 0.7 mm 3 mps 742 mmHg 83%
    16:00 +22°C° 0.7 mm 3 mps 742 mmHg 86%
    17:00 +22°C° 0.7 mm 3 mps 742 mmHg 89%
    18:00 +20°C° 0.4 mm 2 mps 742 mmHg 91%
    19:00 +19°C° 0.4 mm 2 mps 742 mmHg 94%
    20:00 +18°C° 0.4 mm 2 mps 742 mmHg 96%
    21:00 +17°C° 0 mm 2 mps 742 mmHg 96%
    22:00 +17°C° 0 mm 2 mps 742 mmHg 97%
    23:00 +16°C° 0 mm 2 mps 742 mmHg 97%

    20 August, Monday

    Time Temperature Precipitation Wind Pressure Humidity
    00:00 +16°C° 0.2 mm 1 mps 743 mmHg 97%
    01:00 +15°C° 0.2 mm 1 mps 743 mmHg 97%
    02:00 +15°C° 0.2 mm 1 mps 743 mmHg 98%
    03:00 +15°C° 0.1 mm 1 mps 743 mmHg 98%
    04:00 +15°C° 0.1 mm 1 mps 743 mmHg 98%
    05:00 +15°C° 0.1 mm 1 mps 743 mmHg 98%
    06:00 +15°C° 0 mm 2 mps 744 mmHg 96%
    07:00 +16°C° 0 mm 2 mps 744 mmHg 93%
    08:00 +16°C° 0 mm 2 mps 744 mmHg 91%
    09:00 +17°C° 0 mm 2 mps 744 mmHg 82%
    10:00 +18°C° 0 mm 2 mps 744 mmHg 74%
    11:00 +19°C° 0 mm 2 mps 744 mmHg 65%
    12:00 +20°C° 0 mm 2 mps 744 mmHg 59%
    13:00 +21°C° 0 mm 2 mps 744 mmHg 54%
    14:00 +23°C° 0 mm 2 mps 744 mmHg 48%
    15:00 +23°C° 0 mm 2 mps 744 mmHg 51%
    16:00 +21°C° 0 mm 2 mps 744 mmHg 54%
    17:00 +22°C° 0 mm 1 mps 744 mmHg 57%
    18:00 +20°C° 0 mm 1 mps 744 mmHg 63%
    19:00 +18°C° 0 mm 1 mps 744 mmHg 70%
    20:00 +15°C° 0 mm 1 mps 744 mmHg 77%
    21:00 +14°C° 0 mm 1 mps 744 mmHg 78%
    22:00 +13°C° 0 mm 0 mps 743 mmHg 80%
    23:00 +12°C° 0 mm 0 mps 743 mmHg 81%
    Show more